NVS-01

导读

NVS-01是印度于2023年5月29日发射的首颗第二代导航卫星,由GSLV-F12火箭送入地球同步转移轨道,卫星重2232公斤。它隶属于印度国产区域导航卫星系统,可为印度及周边1500公里范围提供20米精度的定位服务,融合L1波段信号扩展服务范围,旨在强化印度卫星导航能力,对标GPS服务本土及周边区域。

基本信息
目录编号:
56759
目录名称:
NVS-01
国际标识:
2023-076A
轨道中心:
EARTH
卫星名称:
NVS-01
卫星全名:
--
卫星状态:
在轨 (已飞行1115 天)
发射日期:
2023-05-29 UTC
国别 :
印度 (IN)
星等 :
--
轨道信息
数据来源 国际轨道数据 AOE轨道数据
星历时间 2026-06-17T02:45:45+0800
16小时前
查看轨道信息
2026-06-16T23:00:00+0800
19小时前
查看轨道信息
半长轴 42166.691km 42166.691km
偏心率 0.0003178 0.0003181
轨道倾角 2.167° 2.167°
近地点辐角 36.213° 37.017°
升交点赤经 244.364° 244.341°
平近点角 35.365° 337.994°
近地点 35775.153km 35775.14km
远地点 35801.955km 35801.968km
周期 1436.197分钟 1436.197分钟
每日圈数 1.002648 1.002648
详细信息
使用方式:
暂无
2D轨道图
3D轨道图
轨道高度分析图
轨道倾角分析图
轨道综合分析图
查看轨道综合分析图